K0JSC-13 Weather Reports


Display with metric or nautical units.
time (UTC)temp
F
wind
direction
speed
MPH
gust
MPH
rain 1hr
in
rain 24hr
in
rain mn
in
humidity
%
barometer
mb
20260504043603 61 81 2.0 7.0 0.00 0.00 0.00 31 987.6
20260504042703 61 75 1.0 3.0 0.00 0.00 0.00 35 987.7
20260504042017 61 76 2.0 5.0 0.00 0.00 0.00 33 987.6
20260504040903 62 78 1.0 3.0 0.00 0.00 0.00 31 987.4
20260504040004 63 86 0.0 3.0 0.00 0.00 0.00 29 987.4
20260504035403 63 89 1.0 5.0 0.00 0.00 0.00 29 987.5
20260504034503 63 90 1.0 6.0 0.00 0.00 0.00 33 987.3
20260504033818 63 92 0.0 6.0 0.00 0.00 0.00 29 987.3
20260504032703 62 94 0.0 1.0 0.00 0.00 0.00 33 987.2
20260504032019 60 81 0.0 1.0 0.00 0.00 0.00 36 987.1
20260504030903 60 84 0.0 1.0 0.00 0.00 0.00 39 986.9
20260504030003 61 79 0.0 3.0 0.00 0.00 0.00 43 986.8
20260504025403 62 0 0.0 0.0 0.00 0.00 0.00 38 986.7
20260504024503 63 0 0.0 0.0 0.00 0.00 0.00 36 986.6
20260504023603 64 74 0.0 1.0 0.00 0.00 0.00 36 986.5
20260504022703 64 74 0.0 1.0 0.00 0.00 0.00 31 986.3
20260504021803 65 0 0.0 0.0 0.00 0.00 0.00 32 986.3
20260504020904 65 0 0.0 0.0 0.00 0.00 0.00 29 986.3
20260504020217 66 74 0.0 1.0 0.00 0.00 0.00 28 986.2
20260504015616 66 74 0.0 1.0 0.00 0.00 0.00 30 986.2
20260504014718 68 0 0.0 0.0 0.00 0.00 0.00 24 986.2
20260504013603 70 195 0.0 3.0 0.00 0.00 0.00 22 985.9
20260504012703 69 0 0.0 0.0 0.00 0.00 0.00 21 985.9
20260504011803 70 74 0.0 2.0 0.00 0.00 0.00 23 985.9
20260504010906 70 84 1.0 4.0 0.00 0.00 0.00 18 985.7
20260504010003 72 153 0.0 2.0 0.00 0.00 0.00 20 985.6
20260504005403 72 200 1.0 3.0 0.00 0.00 0.00 20 985.5
20260504004718 73 193 1.0 4.0 0.00 0.00 0.00 18 985.5
20260504003603 75 216 1.0 4.0 0.00 0.00 0.00 16 985.5
20260504002703 75 205 1.0 5.0 0.00 0.00 0.00 16 985.6
20260504001803 74 203 2.0 4.0 0.00 0.00 0.00 17 985.8
20260504000903 74 208 1.0 3.0 0.00 0.00 0.00 17 985.9
20260504000003 74 196 1.0 5.0 0.00 0.00 0.00 16 985.9
20260503235404 74 199 1.0 5.0 0.00 0.00 0.00 16 985.9
20260503234503 75 204 1.0 4.0 0.00 0.00 0.00 16 985.9
20260503233603 75 120 0.0 2.0 0.00 0.00 0.00 16 985.8
20260503232703 76 85 0.0 2.0 0.00 0.00 0.00 16 985.8
20260503231803 77 155 0.0 1.0 0.00 0.00 0.00 14 985.8
20260503231117 76 76 0.0 2.0 0.00 0.00 0.00 15 985.9
20260503230003 75 96 1.0 3.0 0.00 0.00 0.00 18 986.1
20260503225403 75 85 3.0 9.0 0.00 0.00 0.00 19 986.2
20260503224717 75 87 5.0 14.0 0.00 0.00 0.00 18 986.3
20260503223604 75 97 5.0 15.0 0.00 0.00 0.00 20 986.5
20260503222704 77 95 5.0 19.0 0.00 0.00 0.00 16 986.6
20260503221803 78 91 2.0 11.0 0.00 0.00 0.00 17 986.6
20260503220903 77 101 0.0 4.0 0.00 0.00 0.00 18 986.9
20260503220217 76 87 4.0 11.0 0.00 0.00 0.00 17 987.0
20260503215403 76 91 5.0 17.0 0.00 0.00 0.00 19 987.3
20260503214503 77 90 1.0 5.0 0.00 0.00 0.00 17 987.4
20260503213818 77 77 0.0 2.0 0.00 0.00 0.00 15 987.6
20260503212704 77 60 1.0 7.0 0.00 0.00 0.00 18 987.9
20260503211803 77 264 1.0 4.0 0.00 0.00 0.00 15 988.1
20260503211118 75 97 2.0 7.0 0.00 0.00 0.00 16 988.5
20260503210003 76 43 1.0 8.0 0.00 0.00 0.00 14 988.7
20260503205403 77 238 1.0 8.0 0.00 0.00 0.00 15 988.8
20260503204503 75 250 5.0 11.0 0.00 0.00 0.00 17 989.1
20260503203603 74 219 3.0 8.0 0.00 0.00 0.00 16 989.3
20260503202703 74 255 5.0 13.0 0.00 0.00 0.00 16 989.6
20260503201803 74 236 7.0 15.0 0.00 0.00 0.00 17 989.8
20260503200904 73 233 8.0 18.0 0.00 0.00 0.00 15 990.0
20260503200003 73 229 7.0 18.0 0.00 0.00 0.00 16 990.1
20260503195403 72 222 5.0 10.0 0.00 0.00 0.00 17 990.2
20260503194503 73 240 6.0 14.0 0.00 0.00 0.00 16 990.4
20260503193603 72 230 4.0 8.0 0.00 0.00 0.00 18 990.5
20260503192703 72 246 7.0 15.0 0.00 0.00 0.00 17 990.7
20260503191803 72 247 6.0 14.0 0.00 0.00 0.00 16 990.9
20260503190903 72 248 6.0 15.0 0.00 0.00 0.00 18 991.0
20260503190004 71 295 4.0 10.0 0.00 0.00 0.00 19 991.1
20260503185403 71 285 5.0 11.0 0.00 0.00 0.00 18 991.3
20260503184503 71 215 3.0 12.0 0.00 0.00 0.00 19 991.5
20260503183817 71 232 6.0 12.0 0.00 0.00 0.00 16 991.7
20260503182703 71 227 7.0 18.0 0.00 0.00 0.00 17 991.9
20260503181804 70 234 6.0 12.0 0.00 0.00 0.00 19 992.0
20260503180904 70 250 5.0 12.0 0.00 0.00 0.00 19 992.2
20260503180004 70 229 7.0 13.0 0.00 0.00 0.00 18 992.3
20260503175404 70 245 8.0 17.0 0.00 0.00 0.00 18 992.6
20260503174503 70 245 7.0 16.0 0.00 0.00 0.00 19 992.7
20260503173603 69 258 6.0 12.0 0.00 0.00 0.00 20 992.8
20260503172703 69 288 4.0 12.0 0.00 0.00 0.00 20 993.1
20260503171803 68 294 5.0 10.0 0.00 0.00 0.00 21 993.3
20260503170903 68 297 4.0 10.0 0.00 0.00 0.00 21 993.4
20260503150903 63 295 8.0 15.0 0.00 0.00 0.00 32 995.4
20260503150217 62 298 7.0 15.0 0.00 0.00 0.00 30 995.5
20260503140218 56 307 9.0 15.0 0.00 0.00 0.00 37 996.2
20260503130903 52 307 5.0 10.0 0.00 0.00 0.00 43 996.1
20260503080903 52 300 8.0 17.0 0.00 0.00 0.00 37 996.0
20260503072703 52 303 8.0 13.0 0.00 0.00 0.00 39 996.3
20260503071803 52 306 8.0 13.0 0.00 0.00 0.00 38 996.4
20260503070903 52 307 8.0 13.0 0.00 0.00 0.00 39 996.4
20260503054503 48 18 1.0 3.0 0.00 0.00 0.00 54 996.4
20260503053818 48 18 0.0 3.0 0.00 0.00 0.00 53 996.4
20260503052704 49 18 1.0 3.0 0.00 0.00 0.00 49 996.3
20260503052016 49 21 2.0 4.0 0.00 0.00 0.00 50 996.4
20260503050903 50 23 0.0 3.0 0.00 0.00 0.00 48 996.4
20260503050004 51 23 1.0 2.0 0.00 0.00 0.00 48 996.4
20260503045403 51 23 1.0 3.0 0.00 0.00 0.00 45 996.4
20260503044503 52 23 1.0 3.0 0.00 0.00 0.00 43 996.5